When you browse on this site, cookies collect data to enhance your experience and personalize the content and advertising you see.
Visit our Privacy Policy to learn more. By continuing to use the site, you agree to this use of cookies and data.
  • In Hungary
  • List of Countries
  • For 7 days
  • Water Temperature
  • Weather Map
  • News
  • Weather Widgets
  • user-avatar
    Login

    Hourly Weather Nehrovets'

    Today, 10 December, Tuesday

    Time Temperature Precipitation Wind Pressure Humidity
    00:00 +2°C° 0.7 mm 2 mps 686 mmHg 100%
    01:00 +2°C° 0.7 mm 2 mps 686 mmHg 100%
    02:00 +4°C° 0 mm 0 mps 686 mmHg 97%
    03:00 +4°C° 0 mm 1 mps 686 mmHg 100%
    04:00 +4°C° 0.2 mm 1 mps 686 mmHg 100%
    05:00 +4°C° 0.4 mm 1 mps 686 mmHg 100%
    06:00 +4°C° 0.3 mm 1 mps 686 mmHg 100%
    07:00 +4°C° 0.3 mm 1 mps 687 mmHg 100%
    08:00 +2°C° 0.5 mm 2 mps 687 mmHg 100%
    09:00 +3°C° 0.2 mm 2 mps 687 mmHg 100%
    10:00 +4°C° 0 mm 1 mps 688 mmHg 100%
    11:00 +5°C° 0 mm 1 mps 688 mmHg 100%
    12:00 +4°C° 0.1 mm 1 mps 688 mmHg 100%
    13:00 +4°C° 0.1 mm 1 mps 688 mmHg 100%
    14:00 +4°C° 0.3 mm 1 mps 689 mmHg 100%
    15:00 +3°C° 0.1 mm 2 mps 689 mmHg 100%
    16:00 +2°C° 0.1 mm 2 mps 689 mmHg 100%
    17:00 +1°C° 0.1 mm 3 mps 689 mmHg 100%
    18:00 0°C° 0.1 mm 4 mps 689 mmHg 100%
    19:00 0°C° 0 mm 5 mps 690 mmHg 98%
    20:00 -1°C° 0 mm 5 mps 691 mmHg 96%
    21:00 -1°C° 0 mm 5 mps 691 mmHg 95%
    22:00 -1°C° 0 mm 5 mps 690 mmHg 95%
    23:00 -1°C° 0 mm 4 mps 691 mmHg 95%

    Tomorrow, 11 December, Wednesday

    Time Temperature Precipitation Wind Pressure Humidity
    00:00 -1°C° 0 mm 4 mps 691 mmHg 95%
    01:00 -1°C° 0 mm 3 mps 691 mmHg 96%
    02:00 -1°C° 0 mm 2 mps 691 mmHg 96%
    03:00 -1°C° 0 mm 2 mps 691 mmHg 98%
    04:00 -1°C° 0 mm 2 mps 690 mmHg 100%
    05:00 +1°C° 0.1 mm 1 mps 691 mmHg 100%
    06:00 +1°C° 0.2 mm 1 mps 690 mmHg 100%
    07:00 +1°C° 0.1 mm 1 mps 691 mmHg 100%
    08:00 +1°C° 0.1 mm 1 mps 691 mmHg 100%
    09:00 +1°C° 0.2 mm 1 mps 691 mmHg 100%
    10:00 +2°C° 0.3 mm 1 mps 691 mmHg 100%
    11:00 +2°C° 0.2 mm 1 mps 691 mmHg 100%
    12:00 +3°C° 0.1 mm 1 mps 691 mmHg 100%
    13:00 +2°C° 0.1 mm 2 mps 690 mmHg 100%
    14:00 +3°C° 0 mm 2 mps 690 mmHg 100%
    15:00 +2°C° 0.2 mm 2 mps 690 mmHg 100%
    16:00 +2°C° 0.1 mm 2 mps 689 mmHg 100%
    17:00 +2°C° 0.1 mm 2 mps 689 mmHg 100%
    18:00 +2°C° 0.1 mm 2 mps 688 mmHg 100%
    19:00 0°C° 0 mm 3 mps 689 mmHg 100%
    20:00 0°C° 0.1 mm 3 mps 688 mmHg 100%
    21:00 0°C° 0.1 mm 3 mps 688 mmHg 100%
    22:00 0°C° 0.3 mm 3 mps 688 mmHg 100%
    23:00 0°C° 0.4 mm 3 mps 688 mmHg 100%

    Day after tomorrow, 12 December, Thursday

    Time Temperature Precipitation Wind Pressure Humidity
    00:00 -1°C° 0.5 mm 3 mps 687 mmHg 100%
    01:00 -1°C° 0.5 mm 3 mps 687 mmHg 100%
    02:00 -2°C° 0.5 mm 4 mps 687 mmHg 100%
    03:00 -2°C° 0.3 mm 4 mps 687 mmHg 100%
    04:00 -2°C° 0.1 mm 4 mps 686 mmHg 100%
    05:00 -1°C° 0.1 mm 3 mps 686 mmHg 100%
    06:00 -1°C° 0 mm 3 mps 685 mmHg 100%
    07:00 -1°C° 0 mm 3 mps 686 mmHg 100%
    08:00 -1°C° 0 mm 3 mps 686 mmHg 100%
    09:00 -2°C° 0 mm 4 mps 686 mmHg 100%
    10:00 -1°C° 0 mm 4 mps 686 mmHg 100%
    11:00 -1°C° 0 mm 4 mps 685 mmHg 100%
    12:00 0°C° 0 mm 4 mps 685 mmHg 100%
    13:00 0°C° 0 mm 4 mps 685 mmHg 100%
    14:00 0°C° 0 mm 4 mps 685 mmHg 100%
    15:00 0°C° 0 mm 4 mps 685 mmHg 100%
    16:00 0°C° 0 mm 4 mps 684 mmHg 100%
    17:00 0°C° 0 mm 4 mps 684 mmHg 100%
    18:00 0°C° 0 mm 4 mps 684 mmHg 100%
    19:00 -1°C° 0 mm 4 mps 684 mmHg 100%
    20:00 -1°C° 0 mm 4 mps 684 mmHg 100%
    21:00 -1°C° 0 mm 5 mps 684 mmHg 100%
    22:00 -1°C° 0 mm 5 mps 683 mmHg 100%
    23:00 -1°C° 0.1 mm 5 mps 683 mmHg 100%

    13 December, Friday

    Time Temperature Precipitation Wind Pressure Humidity
    00:00 -1°C° 0.3 mm 5 mps 683 mmHg 100%
    01:00 -1°C° 0.4 mm 5 mps 682 mmHg 100%
    02:00 -1°C° 0.5 mm 5 mps 682 mmHg 100%
    03:00 -2°C° 0.6 mm 5 mps 682 mmHg 100%
    04:00 -2°C° 0.9 mm 4 mps 681 mmHg 100%
    05:00 -2°C° 0.9 mm 4 mps 681 mmHg 100%
    06:00 -2°C° 0.8 mm 4 mps 680 mmHg 100%
    07:00 -2°C° 0.7 mm 4 mps 680 mmHg 100%
    08:00 -2°C° 0.8 mm 4 mps 680 mmHg 100%
    09:00 -2°C° 0.9 mm 4 mps 680 mmHg 100%
    10:00 -2°C° 0.9 mm 5 mps 680 mmHg 100%
    11:00 -2°C° 1 mm 5 mps 679 mmHg 100%
    12:00 -1°C° 1.1 mm 5 mps 679 mmHg 100%
    13:00 -1°C° 1 mm 5 mps 679 mmHg 100%
    14:00 -1°C° 1 mm 4 mps 679 mmHg 100%
    15:00 -1°C° 1 mm 4 mps 679 mmHg 100%
    16:00 -1°C° 0.7 mm 5 mps 678 mmHg 100%
    17:00 -1°C° 0.1 mm 5 mps 678 mmHg 100%
    18:00 -1°C° 0 mm 5 mps 678 mmHg 100%
    19:00 -1°C° 0 mm 5 mps 679 mmHg 100%
    20:00 -1°C° 0 mm 5 mps 679 mmHg 100%
    21:00 -1°C° 0 mm 5 mps 679 mmHg 100%
    22:00 -1°C° 0 mm 5 mps 679 mmHg 100%
    23:00 -1°C° 0 mm 5 mps 678 mmHg 100%

    14 December, Saturday

    Time Temperature Precipitation Wind Pressure Humidity
    00:00 -1°C° 0 mm 5 mps 678 mmHg 100%
    01:00 -2°C° 0 mm 6 mps 678 mmHg 100%
    02:00 -2°C° 0 mm 6 mps 678 mmHg 100%

    15 December, Sunday

    Time Temperature Precipitation Wind Pressure Humidity
    Show more